Regional Weather Roundup
Issued by NWS

Home | Current Version | Previous Version | Graphics & Text | Print | Product List | Glossary On
Versions: 1 2 3 4 5 6 7 8 9 10 11 12 13 14 15 16 17 18 19 20 21 22 23 24 25 26 27 28 29 30 31 32 33 34 35 36 37 38 39 40 41 42 43 44 45 46 47 48
224
ASUS45 KCYS 221810
RWRWY

WYOMING REGIONAL WEATHER ROUNDUP
NATIONAL WEATHER SERVICE CHEYENNE WY
1200 PM MDT WED MAR 22 2017

NOTE:  "FAIR" INDICATES FEW OR NO CLOUDS BELOW 12,000 FEET
WITH NO SIGNIFICANT WEATHER AND/OR OBSTRUCTIONS TO VISIBILITY.

WYZ001-221900-
YELLOWSTONE NATIONAL PARK

CITY           SKY/WX    TMP DP  RH WIND       PRES   REMARKS
LK YELLOWSTONE   N/A     40  30  67 VRB7      29.97
6HR MIN TEMP:  32; 6HR MAX TEMP:  40;

W YELLOWSTONE  NOT AVBL

$$
WYZ002>013-054>058-071-098>099-221900-
NORTHERN WYOMING

CITY           SKY/WX    TMP DP  RH WIND       PRES   REMARKS
JACKSON        MOSUNNY   43  37  81 CALM      29.97
CODY           FAIR      59  30  33 W8        29.85
GREYBULL       FAIR      52  41  66 SW5       29.83
6HR MIN TEMP:  35; 6HR MAX TEMP:  52;

WORLAND        FAIR      54  45  71 SW7       29.85
6HR MIN TEMP:  32; 6HR MAX TEMP:  54;

SHERIDAN       FAIR      47  40  76 SW6       29.85
6HR MIN TEMP:  34; 6HR MAX TEMP:  48;

BUFFALO        FAIR      50  37  61 NW10      29.86
6HR MIN TEMP:  38; 6HR MAX TEMP:  52;

GILLETTE         N/A     64  38  38 W15       29.81
6HR MIN TEMP:  33; 6HR MAX TEMP:  66;

HULETT         FAIR      59  34  38 SW16G24   29.83
NEWCASTLE      FAIR      52  30  43 SE18G25   29.89

$$
WYZ014>020-022>026-101>103-221900-
CENTRAL WYOMING

CITY           SKY/WX    TMP DP  RH WIND       PRES   REMARKS
BIG PINEY      CLOUDY    38  36  92 E10       30.01  FOG     WCI  31
6HR MIN TEMP:  33; 6HR MAX TEMP:  39; 6HR PCP:  0.20;

PINEDALE       LGT SNOW  32  32 100 N9G18     30.03  VSB 3/4 WCI  24
DUBOIS         CLOUDY    46  32  57 NW14G20   29.94
LANDER         PTSUNNY   58  36  43 SE14      29.87
6HR MIN TEMP:  39; 6HR MAX TEMP:  58;

RIVERTON       FAIR      53  37  54 SE6       29.91
6HR MIN TEMP:  33; 6HR MAX TEMP:  53;

CASPER         FAIR      64  36  35 W21G39    29.90
6HR MIN TEMP:  32; 6HR MAX TEMP:  65; 6HR PCP: TRACE;

DOUGLAS        FAIR      56  36  47 S5        29.92
6HR MIN TEMP:  35; 6HR MAX TEMP:  57;


$$
WYZ021-027>030-104>119-221900-
SOUTHERN WYOMING

CITY           SKY/WX    TMP DP  RH WIND       PRES   REMARKS
EVANSTON       CLOUDY    46  36  68 SW17G25   29.98
6HR MIN TEMP:  37; 6HR MAX TEMP:  47;

KEMMERER         N/A     41  36  81 NW5       30.01
FORT BRIDGER   MOCLDY    50  39  67 E5        30.02
ROCK SPRINGS   FAIR      53  36  52 N5        29.98
6HR MIN TEMP:  41; 6HR MAX TEMP:  54; 6HR PCP: TRACE;

DIXON            N/A     63  26  24 SW17G24   30.03
RAWLINS        FAIR      58  28  32 W16       29.99
6HR MIN TEMP:  45; 6HR MAX TEMP:  58;

SARATOGA       FAIR      59  23  25 SW24G33   30.02
LARAMIE        FAIR      64  21  19 SW26G36   29.98
6HR MIN TEMP:  37; 6HR MAX TEMP:  64;

CHEYENNE       FAIR      58  35  42 S10       29.98
6HR MIN TEMP:  29; 6HR MAX TEMP:  58;

TORRINGTON     FAIR      59  31  34 S14       29.92
6HR MIN TEMP:  34; 6HR MAX TEMP:  59;

PINE BLUFFS    FAIR      54  32  43 S10G20    29.99

$$




USA.gov is the U.S. government's official web portal to all federal, state and local government web resources and services.